Weather in Novokubansk

Russia / Krasnodar Krai     45°06′13″N   41°02′50″E
temp.,
°C
wind,
m/s
gust,
m/s
humid.,
%
clouds,
%
prec.,
mm/h
press.,
hPa
HPBL,
m
24 january, sun
sun2400:00+1se457421 0.0 102473
03:000se467310 0.0 102390
06:000se44720 0.0 102360
09:00+1ese47692 0.0 1022111
12:00+5ese476317 0.0 1021187
15:00+5ese476716 0.0 1019153
18:00+2ese4870100 0.0 1020119
21:00+1se4873100 0.0 1019117
25 january, mon
mon2500:00+2se4674100 0.0 101988
03:00+2s3370100 0.0 101933
06:00+2sse226699 0.0 102022
09:00+3se3466100 0.0 102050
12:00+7ese366033 0.0 1018174
15:00+7ese35650 0.0 1017125
18:00+3se476714 0.0 101794
21:00+3se697056 0.0 1017138
26 january, tue
tue2600:00+3se5771100 0.0 1016103
03:00+2se2270100 0.0 101722
06:00+2sse4468100 0.0 101850
09:00+4sse5862100 0.0 1019132
12:00+9se61146100 0.0 1018375
15:00+10ese7145095 0.0 1016398
18:00+7se61360100 0.0 1015275
21:00+6se6115679 0.0 1016186
27 january, wed
wed2700:00+4se466691 0.0 101597
03:00+4se457189 0.0 101483
06:00+3se5966100 0.0 1012151
09:00+5se5964100 0.0 1011153
12:00+8ese5856100 0.0 1009205
15:00+7ese61165100 0.0 1007279
18:00+5ese4774100 0.0 1006137
21:00+5ese4477100 0.0 100689
28 january, thu
thu2800:00+5se2379100 0.0 100640
03:00+6se2369100 0.0 100629
06:00+5se457067 0.0 100680
09:00+4ese227681 0.0 100738
12:00+7nne346397 0.0 1007223
15:00+8nnw456998 0.0 1007454
18:00+6n2381100 0.0 100737
21:00+6n5882100 0.3 1008231